Regional Weather Roundup
Issued by NWS

Home | Current Version | Previous Version | Graphics & Text | Print | Product List | Glossary On
Versions: 1 2 3 4 5 6 7 8 9 10 11 12 13 14 15 16 17 18 19 20 21 22 23 24 25 26 27 28 29 30 31 32 33 34 35 36 37 38 39 40 41 42 43 44 45 46 47 48 49 50
000
ASUS43 KFSD 301102
RWRSD

WEATHER ROUNDUP FOR SOUTH DAKOTA
NATIONAL WEATHER SERVICE SIOUX FALLS SD
600 AM CDT MON MAY 30 2016

NOTE: "FAIR" INDICATES FEW OR NO CLOUDS BELOW 12,000 FEET WITH NO
SIGNIFICANT WEATHER AND/OR OBSTRUCTIONS TO VISIBILITY.


SDZ001>005-009-010-012>017-301200-
NORTHWEST AND NORTH CENTRAL SOUTH DAKOTA

CITY           SKY/WX    TMP DP  RH WIND       PRES   REMARKS
BUFFALO          N/A     54  50  86 SE10      29.83F
FAITH            N/A     56  50  80 SE17      29.91S
MOBRIDGE       CLEAR     57  52  83 SE3       29.90S
$$

SDZ012>016-024>037-041>051-057-063-072>074-301200-
SOUTHWEST AND SOUTH CENTRAL SOUTH DAKOTA

CITY           SKY/WX    TMP DP  RH WIND       PRES   REMARKS
RAPID CTY ARPT CLOUDY    46  45  96 CALM      29.90F
PIERRE         CLOUDY    60  54  80 SE10      29.93S
CUSTER         CLOUDY    47  41  80 VRB3      30.01S
ELLSWORTH AFB  CLOUDY    51  49  92 S6        29.90S
PHILIP         CLOUDY    53  52  96 E6        29.91S
PINE RIDGE     CLOUDY    60  49  66 S15       29.92F
WINNER         CLOUDY    61  57  87 E17       29.96F
$$

SDZ004>011-016>023-039-040-301200-
NORTHEAST SOUTH DAKOTA

CITY           SKY/WX    TMP DP  RH WIND       PRES   REMARKS
ABERDEEN       CLEAR     52  49  89 SE6       29.96S
WATERTOWN      CLOUDY    60  53  77 S9        30.00S
BROOKINGS      CLOUDY    60  53  77 S6        30.02S
SISSETON         N/A     52  46  80 S5        29.96R
$$

SDZ017-020-022-023-036>040-048>070-301200-
SOUTHEAST SOUTH DAKOTA

CITY           SKY/WX    TMP DP  RH WIND       PRES   REMARKS
SIOUX FALLS    MOCLDY    60  54  80 N7        30.00F
HURON          LGT RAIN  63  55  75 S6        29.93F
MITCHELL       CLOUDY    61  57  87 N6        29.96F
YANKTON        CLOUDY    63  55  77 CALM      29.97R
$$

ABBREVIATIONS USED IN REMARKS
   TC - TEMPERATURE IN CELSIUS
  WCI - WIND CHILL INDEX
   HX - HEAT INDEX
  VSB - VISIBILITY





USA.gov is the U.S. government's official web portal to all federal, state and local government web resources and services.